Change the Weather History Date:

Saturday, April 27, 2013

  Actual Average Record
Temperature  
Mean Temperature 69 °F 68 °F  
Max Temperature 85 °F 82 °F 96 °F (1996)
Min Temperature 53 °F 54 °F 35 °F (1984)
Degree Days  
Heating Degree Days 0 1  
Month to date heating degree days 60 89  
Since 1 July heating degree days 2198 2462  
Cooling Degree Days 4 5  
Month to date cooling degree days 104 67  
Year to date cooling degree days 137 77  
Growing Degree Days 18 (Base 50)    
Moisture  
Dew Point 15 °F    
Average Humidity 17    
Maximum Humidity 27    
Minimum Humidity 6    
Precipitation  
Precipitation 0.00 in 0.01 in 0.22 in (1931)
Month to date precipitation T 0.21  
Year to date precipitation 0.71 1.33  
Snow  
Snow 0.00 in - - ()
Month to date snowfall 0.0  
Since 1 July snowfall 3.1  
Snow Depth 0.00 in    
Sea Level Pressure  
Sea Level Pressure 29.91 in    
Wind  
Wind Speed 4 mph (NE)    
Max Wind Speed 13 mph    
Max Gust Speed 17 mph    
Visibility 10 miles    
Events      
T = Trace of Precipitation, MM = Missing Value Source: NWS Daily Summary

Daily Weather History Graph

Daily Weather History Graph

Search for Another Location

Airport or City:

Trip Planner

Search our weather history database for the weather conditions in past years. The results will help you decide how hot, cold, wet, or windy it might be!

Date:

Astronomy

Apr. 27, 2013 Rise Set
Actual Time 6:23 AM MDT 7:43 PM MDT
Civil Twilight 5:57 AM MDT 8:08 PM MDT
Nautical Twilight 5:27 AM MDT 8:39 PM MDT
Astronomical Twilight 4:55 AM MDT 9:11 PM MDT
Moon 10:08 PM MDT (4/27) 7:50 AM MDT (4/27)
Length of Visible Light 14h 11m
Length of Day
13h 19m
Waning Gibbous, 95% of the Moon is Illuminated
Apr 27
Waning Gibbous
May 2
Last Quarter
May 9
New
May 17
First Quarter
May 24
Full

Hourly Weather History & Observations

Time (MDT) Temp. Dew Point Humidity Pressure Visibility Wind Dir Wind Speed Gust Speed Precip Events Conditions
12:51 AM 63.0 °F 6.1 °F 11% 29.95 in 10.0 mi ESE 4.6 mph - N/A   Clear
1:51 AM 62.1 °F 10.0 °F 13% 29.94 in 10.0 mi Calm Calm - N/A   Clear
2:51 AM 60.1 °F 12.0 °F 15% 29.95 in 10.0 mi North 4.6 mph - N/A   Clear
3:51 AM 62.1 °F 23.0 °F 22% 29.95 in 10.0 mi ENE 5.8 mph - N/A   Clear
4:51 AM 60.1 °F 25.0 °F 26% 29.97 in 10.0 mi NW 4.6 mph - N/A   Clear
5:51 AM 60.1 °F 24.1 °F 25% 29.98 in 10.0 mi Calm Calm - N/A   Clear
6:51 AM 55.0 °F 23.0 °F 29% 30.01 in 10.0 mi South 4.6 mph - N/A   Clear
7:51 AM 62.1 °F 24.1 °F 23% 30.01 in 10.0 mi Calm Calm - N/A   Clear
8:51 AM 64.9 °F 24.1 °F 21% 30.01 in 10.0 mi North 3.5 mph - N/A   Clear
9:51 AM 69.1 °F 21.9 °F 17% 30.01 in 10.0 mi NE 4.6 mph - N/A   Clear
10:51 AM 73.0 °F 21.0 °F 14% 30.00 in 10.0 mi Variable 3.5 mph - N/A   Clear
11:51 AM 75.9 °F 17.1 °F 11% 29.98 in 10.0 mi ESE 9.2 mph - N/A   Clear
12:51 PM 80.1 °F 16.0 °F 9% 29.94 in 10.0 mi ENE 3.5 mph - N/A   Clear
1:51 PM 81.0 °F 15.1 °F 8% 29.91 in 10.0 mi Variable 3.5 mph - N/A   Partly Cloudy
2:51 PM 82.9 °F 10.0 °F 6% 29.88 in 10.0 mi Variable 3.5 mph - N/A   Partly Cloudy
3:51 PM 84.9 °F 9.0 °F 6% 29.83 in 10.0 mi ENE 6.9 mph - N/A   Partly Cloudy
4:51 PM 82.0 °F 9.0 °F 6% 29.83 in 10.0 mi Calm Calm - N/A   Partly Cloudy
5:51 PM 82.9 °F 9.0 °F 6% 29.82 in 10.0 mi Variable 3.5 mph - N/A   Partly Cloudy
6:51 PM 82.9 °F 8.1 °F 6% 29.82 in 10.0 mi NNW 9.2 mph - N/A   Partly Cloudy
7:51 PM 79.0 °F 7.0 °F 6% 29.81 in 10.0 mi NNE 6.9 mph - N/A   Partly Cloudy
8:51 PM 77.0 °F 8.1 °F 7% 29.82 in 10.0 mi Calm Calm - N/A   Partly Cloudy
9:51 PM 73.0 °F 8.1 °F 8% 29.84 in 10.0 mi Calm Calm - N/A   Partly Cloudy
10:51 PM 68.0 °F 10.0 °F 11% 29.85 in 10.0 mi ESE 4.6 mph - N/A   Partly Cloudy
11:51 PM 69.1 °F 17.1 °F 14% 29.84 in 10.0 mi Calm Calm - N/A   Clear